Year,Month,Day,Hour,Minute,Value (Times are PST for windgust in km/hr)
2017,05,17,08,34,3.20
2017,05,17,08,35,3.20
2017,05,17,08,36,3.20
2017,05,17,08,37,3.20
2017,05,17,08,38,6.40
2017,05,17,08,39,1.60
2017,05,17,08,40,3.20
2017,05,17,08,41,9.60
2017,05,17,08,42,8.10
2017,05,17,08,43,6.40
2017,05,17,08,44,6.40
2017,05,17,08,45,4.80
2017,05,17,08,46,4.80
2017,05,17,08,47,4.80
2017,05,17,08,48,9.60
2017,05,17,08,49,8.10
2017,05,17,08,50,1.60
2017,05,17,08,51,1.60
2017,05,17,08,52,9.60
2017,05,17,08,53,6.40
2017,05,17,08,54,8.10
2017,05,17,08,55,14.50
2017,05,17,08,56,14.50
2017,05,17,08,57,8.10
2017,05,17,08,58,3.20
2017,05,17,09,00,4.80
2017,05,17,09,01,6.40
2017,05,17,09,02,4.80
2017,05,17,09,03,3.20
2017,05,17,09,04,3.20
2017,05,17,09,05,3.20
2017,05,17,09,07,9.60
2017,05,17,09,08,9.60
2017,05,17,09,09,8.10
2017,05,17,09,10,9.60
2017,05,17,09,11,11.30
2017,05,17,09,12,11.30
2017,05,17,09,13,11.30
2017,05,17,09,14,14.50
2017,05,17,09,15,14.50
2017,05,17,09,16,4.80
2017,05,17,09,17,11.30
2017,05,17,09,18,16.10
2017,05,17,09,19,12.90
2017,05,17,09,20,16.10
2017,05,17,09,21,11.30
2017,05,17,09,22,17.70
2017,05,17,09,23,20.90
2017,05,17,09,24,14.50
2017,05,17,09,25,16.10
2017,05,17,09,26,11.30
2017,05,17,09,27,6.40
2017,05,17,09,28,14.50
2017,05,17,09,29,14.50
2017,05,17,09,30,12.90
2017,05,17,09,31,6.40
2017,05,17,09,32,6.40
2017,05,17,09,33,12.90
2017,05,17,09,34,16.10
2017,05,17,09,35,16.10
2017,05,17,09,36,16.10
2017,05,17,09,37,16.10
2017,05,17,09,38,16.10
2017,05,17,09,39,12.90
2017,05,17,09,40,12.90
2017,05,17,09,41,11.30
2017,05,17,09,42,11.30
2017,05,17,09,43,14.50
2017,05,17,09,44,12.90
2017,05,17,09,45,11.30
2017,05,17,09,46,12.90
2017,05,17,09,47,9.60
2017,05,17,09,48,6.40
2017,05,17,09,49,9.60
2017,05,17,09,50,14.50
2017,05,17,09,51,11.30
2017,05,17,09,52,12.90
2017,05,17,09,53,9.60
2017,05,17,09,54,16.10
2017,05,17,09,55,12.90
2017,05,17,09,56,14.50
2017,05,17,09,57,9.60
2017,05,17,09,58,12.90
2017,05,17,09,59,14.50
2017,05,17,10,00,16.10
2017,05,17,10,01,16.10
2017,05,17,10,02,12.90
2017,05,17,10,03,16.10
2017,05,17,10,04,11.30
2017,05,17,10,05,11.30
2017,05,17,10,06,16.10
2017,05,17,10,07,14.50
2017,05,17,10,08,14.50
2017,05,17,10,09,14.50
2017,05,17,10,10,12.90
2017,05,17,10,11,4.80
2017,05,17,10,12,8.10
2017,05,17,10,13,1.60
2017,05,17,10,14,9.60
2017,05,17,10,15,14.50
2017,05,17,10,16,11.30
2017,05,17,10,17,11.30
2017,05,17,10,18,11.30
2017,05,17,10,19,9.60
2017,05,17,10,20,11.30
2017,05,17,10,21,11.30
2017,05,17,10,22,12.90
2017,05,17,10,23,12.90
2017,05,17,10,24,17.70
2017,05,17,10,25,12.90
2017,05,17,10,26,14.50
2017,05,17,10,27,9.60
2017,05,17,10,28,11.30
2017,05,17,10,29,9.60
2017,05,17,10,30,16.10
2017,05,17,10,31,16.10
2017,05,17,10,32,11.30
2017,05,17,10,33,12.90
2017,05,17,10,34,12.90
2017,05,17,10,35,25.70
2017,05,17,10,36,9.60
2017,05,17,10,37,12.90
2017,05,17,10,38,9.60
2017,05,17,10,39,6.40
2017,05,17,10,40,12.90
2017,05,17,10,41,8.10
2017,05,17,10,42,12.90
2017,05,17,10,43,11.30
2017,05,17,10,44,14.50
2017,05,17,10,45,12.90
2017,05,17,10,46,17.70
2017,05,17,10,47,17.70
2017,05,17,10,48,17.70
2017,05,17,10,49,16.10
2017,05,17,10,50,19.30
2017,05,17,10,51,14.50
2017,05,17,10,52,12.90
2017,05,17,10,53,17.70
2017,05,17,10,54,19.30
2017,05,17,10,55,16.10
2017,05,17,10,56,6.40
2017,05,17,10,57,20.90
2017,05,17,10,58,16.10
2017,05,17,10,59,29.00
2017,05,17,11,00,16.10
2017,05,17,11,01,12.90
2017,05,17,11,02,16.10
2017,05,17,11,03,19.30
2017,05,17,11,04,20.90
2017,05,17,11,05,14.50
2017,05,17,11,06,16.10
2017,05,17,11,07,9.60
2017,05,17,11,08,3.20
2017,05,17,11,09,12.90
2017,05,17,11,10,12.90
2017,05,17,11,11,19.30
2017,05,17,11,12,24.20
2017,05,17,11,13,27.40
2017,05,17,11,14,12.90
2017,05,17,11,15,16.10
2017,05,17,11,16,11.30
2017,05,17,11,17,17.70
2017,05,17,11,18,14.50
2017,05,17,11,19,19.30
2017,05,17,11,20,22.50
2017,05,17,11,21,12.90
2017,05,17,11,22,14.50
2017,05,17,11,23,16.10
2017,05,17,11,24,16.10
2017,05,17,11,25,14.50
2017,05,17,11,26,9.60
2017,05,17,11,27,14.50
2017,05,17,11,28,12.90
2017,05,17,11,29,14.50
2017,05,17,11,30,16.10
2017,05,17,11,31,17.70
2017,05,17,11,32,17.70
2017,05,17,11,33,14.50
2017,05,17,11,34,20.90
2017,05,17,11,35,17.70
2017,05,17,11,36,12.90
2017,05,17,11,37,6.40
2017,05,17,11,38,9.60
2017,05,17,11,39,12.90
2017,05,17,11,40,9.60
2017,05,17,11,41,14.50
2017,05,17,11,42,14.50
2017,05,17,11,43,6.40
2017,05,17,11,44,14.50
2017,05,17,11,45,24.20
2017,05,17,11,46,19.30
2017,05,17,11,47,14.50
2017,05,17,11,48,16.10
2017,05,17,11,49,17.70
2017,05,17,11,50,14.50
2017,05,17,11,51,16.10
2017,05,17,11,52,17.70
2017,05,17,11,53,17.70
2017,05,17,11,54,19.30
2017,05,17,11,55,19.30
2017,05,17,11,56,20.90
2017,05,17,11,57,19.30
2017,05,17,11,58,16.10
2017,05,17,11,59,17.70
2017,05,17,12,00,19.30
2017,05,17,12,01,17.70
2017,05,17,12,02,17.70
2017,05,17,12,03,20.90
2017,05,17,12,04,16.10
2017,05,17,12,05,14.50
2017,05,17,12,06,16.10
2017,05,17,12,07,17.70
2017,05,17,12,08,17.70
2017,05,17,12,09,9.60
2017,05,17,12,10,14.50
2017,05,17,12,11,14.50
2017,05,17,12,12,16.10
2017,05,17,12,13,12.90
2017,05,17,12,14,12.90
2017,05,17,12,15,16.10
2017,05,17,12,16,12.90
2017,05,17,12,17,16.10
2017,05,17,12,18,17.70
2017,05,17,12,19,19.30
2017,05,17,12,20,17.70
2017,05,17,12,21,16.10
2017,05,17,12,22,16.10
2017,05,17,12,23,14.50
2017,05,17,12,24,19.30
2017,05,17,12,25,16.10
2017,05,17,12,26,19.30
2017,05,17,12,27,16.10
2017,05,17,12,28,14.50
2017,05,17,12,29,16.10
2017,05,17,12,30,24.20
2017,05,17,12,31,20.90
2017,05,17,12,32,20.90
2017,05,17,12,33,20.90
2017,05,17,12,34,17.70
2017,05,17,12,35,19.30
2017,05,17,12,36,20.90
2017,05,17,12,37,16.10
2017,05,17,12,38,19.30
2017,05,17,12,39,19.30
2017,05,17,12,40,17.70
2017,05,17,12,41,14.50
2017,05,17,12,42,16.10
2017,05,17,12,43,14.50
2017,05,17,12,44,14.50
2017,05,17,12,45,14.50
2017,05,17,12,46,9.60
2017,05,17,12,47,16.10
2017,05,17,12,48,12.90
2017,05,17,12,49,9.60
2017,05,17,12,50,16.10
2017,05,17,12,51,12.90
2017,05,17,12,52,17.70
2017,05,17,12,53,20.90
2017,05,17,12,54,22.50
2017,05,17,12,55,14.50
2017,05,17,12,56,11.30
2017,05,17,12,57,16.10
2017,05,17,12,58,16.10
2017,05,17,12,59,9.60
2017,05,17,13,00,12.90
2017,05,17,13,01,12.90
2017,05,17,13,02,16.10
2017,05,17,13,03,16.10
2017,05,17,13,04,17.70
2017,05,17,13,05,16.10
2017,05,17,13,06,17.70
2017,05,17,13,07,12.90
2017,05,17,13,08,14.50
2017,05,17,13,09,19.30
2017,05,17,13,10,12.90
2017,05,17,13,11,16.10
2017,05,17,13,12,12.90
2017,05,17,13,13,22.50
2017,05,17,13,14,12.90
2017,05,17,13,15,20.90
2017,05,17,13,16,16.10
2017,05,17,13,17,12.90
2017,05,17,13,18,14.50
2017,05,17,13,19,16.10
2017,05,17,13,20,16.10
2017,05,17,13,21,16.10
2017,05,17,13,22,17.70
2017,05,17,13,23,12.90
2017,05,17,13,24,12.90
2017,05,17,13,25,12.90
2017,05,17,13,26,17.70
2017,05,17,13,27,17.70
2017,05,17,13,28,16.10
2017,05,17,13,29,12.90
2017,05,17,13,30,17.70
2017,05,17,13,31,12.90
2017,05,17,13,32,8.10
2017,05,17,13,33,4.80
2017,05,17,13,34,14.50
2017,05,17,13,35,19.30
2017,05,17,13,36,17.70
2017,05,17,13,37,12.90
2017,05,17,13,38,17.70
2017,05,17,13,39,11.30
2017,05,17,13,40,14.50
2017,05,17,13,41,9.60
2017,05,17,13,42,11.30
2017,05,17,13,43,17.70
2017,05,17,13,44,9.60
2017,05,17,13,45,16.10
2017,05,17,13,46,9.60
2017,05,17,13,47,11.30
2017,05,17,13,48,16.10
2017,05,17,13,49,16.10
2017,05,17,13,50,16.10
2017,05,17,13,51,16.10
2017,05,17,13,52,4.80
2017,05,17,13,53,6.40
2017,05,17,13,54,8.10
2017,05,17,13,55,14.50
2017,05,17,13,56,16.10
2017,05,17,13,57,12.90
2017,05,17,13,58,11.30
2017,05,17,13,59,4.80
2017,05,17,14,00,4.80
2017,05,17,14,01,16.10
2017,05,17,14,02,17.70
2017,05,17,14,03,17.70
2017,05,17,14,04,14.50
2017,05,17,14,05,17.70
2017,05,17,14,06,20.90
2017,05,17,14,07,11.30
2017,05,17,14,08,20.90
2017,05,17,14,09,16.10
2017,05,17,14,10,9.60
2017,05,17,14,11,17.70
2017,05,17,14,12,14.50
2017,05,17,14,13,9.60
2017,05,17,14,14,6.40
2017,05,17,14,15,9.60
2017,05,17,14,16,9.60
2017,05,17,14,17,8.10
2017,05,17,14,18,12.90
2017,05,17,14,19,11.30
2017,05,17,14,20,8.10
2017,05,17,14,21,9.60
2017,05,17,14,22,17.70
2017,05,17,14,23,20.90
2017,05,17,14,24,16.10
2017,05,17,14,25,16.10
2017,05,17,14,26,14.50
2017,05,17,14,27,17.70
2017,05,17,14,28,17.70
2017,05,17,14,29,14.50
2017,05,17,14,30,17.70
2017,05,17,14,31,20.90
2017,05,17,14,32,19.30
2017,05,17,14,33,16.10
2017,05,17,14,34,22.50
2017,05,17,14,35,19.30
2017,05,17,14,36,19.30
2017,05,17,14,37,14.50
2017,05,17,14,38,14.50
2017,05,17,14,39,11.30
2017,05,17,14,40,11.30
2017,05,17,14,41,14.50
2017,05,17,14,42,12.90
2017,05,17,14,43,4.80
2017,05,17,14,44,14.50
2017,05,17,14,45,8.10
2017,05,17,14,46,8.10
2017,05,17,14,47,8.10
2017,05,17,14,48,3.20
2017,05,17,14,49,8.10
2017,05,17,14,50,3.20
2017,05,17,14,51,8.10
2017,05,17,14,52,11.30
2017,05,17,14,53,17.70
2017,05,17,14,54,11.30
2017,05,17,14,55,19.30
2017,05,17,14,56,17.70
2017,05,17,14,57,16.10
2017,05,17,14,58,17.70
2017,05,17,14,59,11.30
2017,05,17,15,00,12.90
2017,05,17,15,01,14.50
2017,05,17,15,02,16.10
2017,05,17,15,03,17.70
2017,05,17,15,04,19.30
2017,05,17,15,05,12.90
2017,05,17,15,06,20.90
2017,05,17,15,07,17.70
2017,05,17,15,08,19.30
2017,05,17,15,09,16.10
2017,05,17,15,10,17.70
2017,05,17,15,11,17.70
2017,05,17,15,12,17.70
2017,05,17,15,13,14.50
2017,05,17,15,14,17.70
2017,05,17,15,15,14.50
2017,05,17,15,16,16.10
2017,05,17,15,17,17.70
2017,05,17,15,18,16.10
2017,05,17,15,19,16.10
2017,05,17,15,20,9.60
2017,05,17,15,21,11.30
2017,05,17,15,22,12.90
2017,05,17,15,23,12.90
2017,05,17,15,24,11.30
2017,05,17,15,25,11.30
2017,05,17,15,26,14.50
2017,05,17,15,27,12.90
2017,05,17,15,28,12.90
2017,05,17,15,29,14.50
2017,05,17,15,30,12.90
2017,05,17,15,31,11.30
2017,05,17,15,32,9.60
2017,05,17,15,33,11.30
2017,05,17,15,34,4.80
2017,05,17,15,35,9.60
2017,05,17,15,36,9.60
2017,05,17,15,37,4.80
2017,05,17,15,38,14.50
2017,05,17,15,39,6.40
2017,05,17,15,40,8.10
2017,05,17,15,41,12.90
2017,05,17,15,42,12.90
2017,05,17,15,43,14.50
2017,05,17,15,44,16.10
2017,05,17,15,45,14.50
2017,05,17,15,46,17.70
2017,05,17,15,47,17.70
2017,05,17,15,48,14.50
2017,05,17,15,49,6.40
2017,05,17,15,50,16.10
2017,05,17,15,51,19.30
2017,05,17,15,52,12.90
2017,05,17,15,53,11.30
2017,05,17,15,54,8.10
2017,05,17,15,55,8.10
2017,05,17,15,56,9.60
2017,05,17,15,57,16.10
2017,05,17,15,58,12.90
2017,05,17,15,59,8.10
2017,05,17,16,00,6.40
2017,05,17,16,01,1.60
2017,05,17,16,02,3.20
2017,05,17,16,03,8.10
2017,05,17,16,04,9.60
2017,05,17,16,05,8.10
2017,05,17,16,06,12.90
2017,05,17,16,07,11.30
2017,05,17,16,08,9.60
2017,05,17,16,09,9.60
2017,05,17,16,10,8.10
2017,05,17,16,11,11.30
2017,05,17,16,12,12.90
2017,05,17,16,13,12.90
2017,05,17,16,14,16.10
2017,05,17,16,15,12.90
2017,05,17,16,16,14.50
2017,05,17,16,17,14.50
2017,05,17,16,18,14.50
2017,05,17,16,19,14.50
2017,05,17,16,20,16.10
2017,05,17,16,21,14.50
2017,05,17,16,22,16.10
2017,05,17,16,23,14.50
2017,05,17,16,24,12.90
2017,05,17,16,25,12.90
2017,05,17,16,26,14.50
2017,05,17,16,27,6.40
2017,05,17,16,28,11.30
2017,05,17,16,29,9.60
2017,05,17,16,30,16.10
2017,05,17,16,31,11.30
2017,05,17,16,32,11.30
2017,05,17,16,33,14.50
2017,05,17,16,34,16.10
2017,05,17,16,35,12.90
2017,05,17,16,36,16.10
2017,05,17,16,37,16.10
2017,05,17,16,38,12.90
2017,05,17,16,39,16.10
2017,05,17,16,40,14.50
2017,05,17,16,41,16.10
2017,05,17,16,42,16.10
2017,05,17,16,43,16.10
2017,05,17,16,44,14.50
2017,05,17,16,45,11.30
2017,05,17,16,46,4.80
2017,05,17,16,47,6.40
2017,05,17,16,48,14.50
2017,05,17,16,49,17.70
2017,05,17,16,50,12.90
2017,05,17,16,51,17.70
2017,05,17,16,52,16.10
2017,05,17,16,53,16.10
2017,05,17,16,54,17.70
2017,05,17,16,55,12.90
2017,05,17,16,56,11.30
2017,05,17,16,57,12.90
2017,05,17,16,58,14.50
2017,05,17,16,59,12.90
2017,05,17,17,00,12.90
2017,05,17,17,01,12.90
2017,05,17,17,02,8.10
2017,05,17,17,03,11.30
2017,05,17,17,04,8.10
2017,05,17,17,05,12.90
2017,05,17,17,06,9.60
2017,05,17,17,07,14.50
2017,05,17,17,08,14.50
2017,05,17,17,09,12.90
2017,05,17,17,10,11.30
2017,05,17,17,11,9.60
2017,05,17,17,12,16.10
2017,05,17,17,13,14.50
2017,05,17,17,14,12.90
2017,05,17,17,15,12.90
2017,05,17,17,16,14.50
2017,05,17,17,17,8.10
2017,05,17,17,18,11.30
2017,05,17,17,19,12.90
2017,05,17,17,20,11.30
2017,05,17,17,21,12.90
2017,05,17,17,22,12.90
2017,05,17,17,23,11.30
2017,05,17,17,24,8.10
2017,05,17,17,25,12.90
2017,05,17,17,26,11.30
2017,05,17,17,27,9.60
2017,05,17,17,28,12.90
2017,05,17,17,29,12.90
2017,05,17,17,30,8.10
2017,05,17,17,31,9.60
2017,05,17,17,32,11.30
2017,05,17,17,33,11.30
2017,05,17,17,34,11.30
2017,05,17,17,35,14.50
2017,05,17,17,36,8.10
2017,05,17,17,37,11.30
2017,05,17,17,38,8.10
2017,05,17,17,39,11.30
2017,05,17,17,40,8.10
2017,05,17,17,41,14.50
2017,05,17,17,42,11.30
2017,05,17,17,43,12.90
2017,05,17,17,44,9.60
2017,05,17,17,45,11.30
2017,05,17,17,46,6.40
2017,05,17,17,47,12.90
2017,05,17,17,48,11.30
2017,05,17,17,49,6.40
2017,05,17,17,50,11.30
2017,05,17,17,51,11.30
2017,05,17,17,52,6.40
2017,05,17,17,53,6.40
2017,05,17,17,54,8.10
2017,05,17,17,55,8.10
2017,05,17,17,56,6.40
2017,05,17,17,57,11.30
2017,05,17,17,58,8.10
2017,05,17,17,59,6.40
2017,05,17,18,00,9.60
2017,05,17,18,01,4.80
2017,05,17,18,02,4.80
2017,05,17,18,03,8.10
2017,05,17,18,04,6.40
2017,05,17,18,05,8.10
2017,05,17,18,06,6.40
2017,05,17,18,07,4.80
2017,05,17,18,08,3.20
2017,05,17,18,10,8.10
2017,05,17,18,11,6.40
2017,05,17,18,12,9.60
2017,05,17,18,13,8.10
2017,05,17,18,14,8.10
2017,05,17,18,15,11.30
2017,05,17,18,17,6.40
2017,05,17,18,18,4.80
2017,05,17,18,19,3.20
2017,05,17,18,20,4.80
2017,05,17,18,21,1.60
2017,05,17,18,22,4.80
2017,05,17,18,23,4.80
2017,05,17,18,24,6.40
2017,05,17,18,25,8.10
2017,05,17,18,26,9.60
2017,05,17,18,27,8.10
2017,05,17,18,28,6.40
2017,05,17,18,29,4.80
2017,05,17,18,30,6.40
2017,05,17,18,31,4.80
2017,05,17,18,32,11.30
2017,05,17,18,33,6.40
2017,05,17,18,34,6.40
2017,05,17,18,35,6.40
2017,05,17,18,36,3.20
2017,05,17,18,37,3.20
2017,05,17,18,38,4.80
2017,05,17,18,39,8.10
2017,05,17,18,40,11.30
2017,05,17,18,41,11.30
2017,05,17,18,42,12.90
2017,05,17,18,43,11.30
2017,05,17,18,44,6.40
2017,05,17,18,45,9.60
2017,05,17,18,46,6.40
2017,05,17,18,47,8.10
2017,05,17,18,48,8.10
2017,05,17,18,49,3.20
2017,05,17,18,50,4.80
2017,05,17,18,51,6.40
2017,05,17,18,52,3.20
2017,05,17,18,53,4.80
2017,05,17,18,54,4.80
2017,05,17,18,55,6.40
2017,05,17,18,56,6.40
2017,05,17,18,57,6.40
2017,05,17,18,58,8.10
2017,05,17,18,59,4.80
2017,05,17,19,00,11.30
2017,05,17,19,01,6.40
2017,05,17,19,02,6.40
2017,05,17,19,03,6.40
2017,05,17,19,04,6.40
2017,05,17,19,05,6.40
2017,05,17,19,06,8.10
2017,05,17,19,07,11.30
2017,05,17,19,08,9.60
2017,05,17,19,09,6.40
2017,05,17,19,10,6.40
2017,05,17,19,11,11.30
2017,05,17,19,12,9.60
2017,05,17,19,13,12.90
2017,05,17,19,14,6.40
2017,05,17,19,15,9.60
2017,05,17,19,16,6.40
2017,05,17,19,17,6.40
2017,05,17,19,18,6.40
2017,05,17,19,19,9.60
2017,05,17,19,20,9.60
2017,05,17,19,21,9.60
2017,05,17,19,22,11.30
2017,05,17,19,23,6.40
2017,05,17,19,24,4.80
2017,05,17,19,25,4.80
2017,05,17,19,26,4.80
2017,05,17,19,27,4.80
2017,05,17,19,28,6.40
2017,05,17,19,29,6.40
2017,05,17,19,30,6.40
2017,05,17,19,31,4.80
2017,05,17,19,32,3.20
2017,05,17,19,33,1.60
2017,05,17,19,35,4.80
2017,05,17,19,36,6.40
2017,05,17,19,37,4.80
2017,05,17,19,38,6.40
2017,05,17,19,39,4.80
2017,05,17,19,40,4.80
2017,05,17,19,41,6.40
2017,05,17,19,42,4.80
2017,05,17,19,43,4.80
2017,05,17,19,44,4.80
2017,05,17,19,45,6.40
2017,05,17,19,46,4.80
2017,05,17,19,47,6.40
2017,05,17,19,48,4.80
2017,05,17,19,49,3.20
2017,05,17,19,50,1.60
2017,05,17,19,51,3.20
2017,05,17,19,52,3.20
2017,05,17,19,53,6.40
2017,05,17,19,54,6.40
2017,05,17,19,55,4.80
2017,05,17,19,56,6.40
2017,05,17,19,57,4.80
2017,05,17,19,58,4.80
2017,05,17,19,59,4.80
2017,05,17,20,00,4.80
2017,05,17,20,01,4.80
2017,05,17,20,02,3.20
2017,05,17,20,03,1.60
2017,05,17,20,04,3.20
2017,05,17,20,05,3.20
2017,05,17,20,06,1.60
2017,05,17,20,07,4.80
2017,05,17,20,08,3.20
2017,05,17,20,09,4.80
2017,05,17,21,43,4.80
2017,05,17,21,44,1.60
2017,05,17,22,01,1.60
2017,05,17,22,02,1.60
2017,05,17,22,05,4.80
2017,05,17,22,06,3.20
2017,05,17,22,07,4.80
2017,05,17,22,08,4.80
2017,05,17,22,09,3.20
2017,05,17,22,10,4.80
2017,05,17,22,11,9.60
2017,05,17,22,12,9.60
2017,05,17,22,13,8.10
2017,05,17,22,14,4.80
2017,05,17,22,15,4.80
2017,05,17,22,16,9.60
2017,05,17,22,17,9.60
2017,05,17,22,18,6.40
2017,05,17,22,19,6.40
2017,05,17,22,20,6.40
2017,05,17,22,21,9.60
2017,05,17,22,22,9.60
2017,05,17,22,23,6.40
2017,05,17,22,24,9.60
2017,05,17,22,25,11.30
2017,05,17,22,26,9.60
2017,05,17,22,27,12.90
2017,05,17,22,28,17.70
2017,05,17,22,29,11.30
2017,05,17,22,30,12.90
2017,05,17,22,31,12.90
2017,05,17,22,32,12.90
2017,05,17,22,33,11.30
2017,05,17,22,34,6.40
2017,05,17,22,35,4.80
2017,05,17,22,36,6.40
2017,05,17,22,37,3.20
2017,05,17,22,38,4.80
2017,05,17,22,39,4.80
2017,05,17,22,40,3.20
2017,05,17,22,41,3.20
2017,05,17,22,42,4.80
2017,05,17,22,43,4.80
2017,05,17,22,44,11.30
2017,05,17,22,45,14.50
2017,05,17,22,46,9.60
2017,05,17,22,47,12.90
2017,05,17,22,48,11.30
2017,05,17,22,49,11.30
2017,05,17,22,50,14.50
2017,05,17,22,51,6.40
2017,05,17,22,52,8.10
2017,05,17,22,53,11.30
2017,05,17,22,54,12.90
2017,05,17,22,55,9.60
2017,05,17,22,56,6.40
2017,05,17,22,57,6.40
2017,05,17,22,58,3.20
2017,05,17,22,59,8.10
2017,05,17,23,00,6.40
2017,05,17,23,01,6.40
2017,05,17,23,02,1.60
2017,05,17,23,03,1.60
2017,05,17,23,04,1.60
2017,05,17,23,05,12.90
2017,05,17,23,06,12.90
2017,05,17,23,07,6.40
2017,05,17,23,08,9.60
2017,05,17,23,09,8.10
2017,05,17,23,10,6.40
2017,05,17,23,11,6.40
2017,05,17,23,12,4.80
2017,05,17,23,13,3.20
2017,05,17,23,14,1.60
2017,05,17,23,15,1.60
2017,05,17,23,16,8.10
2017,05,17,23,17,6.40
2017,05,17,23,18,4.80
2017,05,17,23,19,8.10
2017,05,17,23,20,3.20
2017,05,17,23,21,1.60
2017,05,17,23,22,3.20
2017,05,17,23,23,1.60
2017,05,17,23,24,4.80
2017,05,17,23,25,11.30
2017,05,17,23,26,6.40
2017,05,17,23,27,3.20
2017,05,17,23,28,1.60
2017,05,17,23,31,8.10
2017,05,17,23,32,4.80
2017,05,17,23,33,4.80
2017,05,17,23,34,8.10
2017,05,17,23,35,8.10
2017,05,17,23,36,6.40
2017,05,17,23,37,6.40
2017,05,17,23,38,9.60
2017,05,17,23,39,3.20
2017,05,17,23,40,1.60
2017,05,17,23,41,1.60
2017,05,17,23,42,8.10
2017,05,17,23,43,4.80
2017,05,17,23,44,8.10
2017,05,17,23,45,6.40
2017,05,17,23,46,4.80
2017,05,17,23,47,6.40
2017,05,17,23,48,3.20
2017,05,17,23,54,3.20
2017,05,17,23,55,1.60
2017,05,17,23,56,3.20
2017,05,17,23,57,4.80
